星链-4678 (STARLINK-4678 )

导读

STARLINK-4678是美国SpaceX星链互联网卫星星座中的一员,于2022年9月11日发射入轨。星链星座旨在为全球提供低延迟高速互联网接入服务,该卫星和同批次星链卫星一同部署在近地轨道,通过星间链路和地面站组网,服务覆盖包括偏远地区在内的全球区域,推进星链星座的全球服务部署进度。

基本信息
目录编号:
53780
目录名称:
STARLINK-4678
国际标识:
2022-111H
轨道中心:
EARTH
卫星名称:
星链-4678
卫星全名:
星链-4678 (STARLINK-4678 )
卫星状态:
在轨 (已飞行1375 天)
发射日期:
2022-09-11 UTC
国别 :
美国 (US)
星等 :
--
轨道信息
数据来源 国际轨道数据 AOE轨道数据
星历时间 2026-06-17T02:52:25+0800
13小时前
查看轨道信息
2026-06-17T02:00:00+0800
14小时前
查看轨道信息
半长轴 6917.91km 6917.915km
偏心率 0.0001065 0.000159
轨道倾角 53.160° 53.152°
近地点辐角 79.066° 72.525°
升交点赤经 189.360° 189.529°
平近点角 281.046° 89.754°
近地点 539.036km 538.678km
远地点 540.51km 540.878km
周期 95.438分钟 95.438分钟
每日圈数 15.088306 15.08829
详细信息
固有亮度:
5
最大亮度:
2.5
卫星平台:
Starlink v1.5
覆盖范围:
全球
运营商:
太空探索技术公司
运营商所在国:
美国
制造商(研发单位):
太空探索技术公司
制造商所在国:
美国
使用方式:
暂无
卫星简介
星链(Starlink)计划是由太空探索技术公司(SpaceX)提出的一个巨型低轨卫星互联网星座项目,计划在2019年至2024年间在太空搭建由约1.2万颗卫星组成的“星链”网络,其中1584颗将部署在地球上空550千米处的近地轨道,并从2020年开始工作。该卫星仍在工作。
2D轨道图
3D轨道图
轨道高度分析图
轨道倾角分析图
轨道综合分析图
查看轨道综合分析图